Time,TemperatureF,DewpointF,PressureIn,WindDirection,WindDirectionDegrees,WindSpeedMPH,WindSpeedGustMPH,Humidity,HourlyPrecipIn,Conditions,Clouds,dailyrainin,SoftwareType,DateUTC
2013-01-13 00:01:00,40.2,34.5,30.10,East,97,7.0,13.0,80,0.00,,---,0.00,VWS V14.00,2013-01-13 00:01:00,
2013-01-13 00:06:00,40.1,34.4,30.10,East,89,12.0,12.0,80,0.00,,---,0.00,VWS V14.00,2013-01-13 00:06:00,
2013-01-13 00:11:00,40.0,34.3,30.10,East,100,8.0,12.0,80,0.00,,---,0.00,VWS V14.00,2013-01-13 00:11:00,
2013-01-13 00:16:00,39.9,34.2,30.10,East,89,10.0,12.0,80,0.00,,---,0.00,VWS V14.00,2013-01-13 00:16:00,
2013-01-13 00:21:00,40.0,34.3,30.10,ESE,110,11.0,12.0,80,0.00,,---,0.00,VWS V14.00,2013-01-13 00:21:00,
2013-01-13 00:26:00,40.0,34.0,30.10,ESE,119,12.0,13.0,79,0.00,,---,0.00,VWS V14.00,2013-01-13 00:26:00,
2013-01-13 00:31:00,39.9,33.9,30.10,SE,128,7.0,13.0,79,0.00,,---,0.00,VWS V14.00,2013-01-13 00:31:00,
2013-01-13 00:36:00,39.9,33.6,30.10,East,83,5.0,11.0,78,0.00,,---,0.00,VWS V14.00,2013-01-13 00:36:00,
2013-01-13 00:42:00,39.9,33.6,30.11,ESE,111,7.0,9.0,78,0.00,,---,0.00,VWS V14.00,2013-01-13 00:42:00,
2013-01-13 00:48:00,39.8,33.5,30.10,SE,127,12.0,14.0,78,0.00,,---,0.00,VWS V14.00,2013-01-13 00:48:00,
2013-01-13 00:53:00,39.7,32.8,30.11,East,98,8.0,12.0,76,0.00,,---,0.00,VWS V14.00,2013-01-13 00:53:00,
2013-01-13 00:58:00,39.7,32.8,30.10,ESE,103,9.0,12.0,76,0.00,,---,0.00,VWS V14.00,2013-01-13 00:58:00,
2013-01-13 01:04:00,39.8,33.2,30.11,ESE,103,10.0,13.0,77,0.00,,---,0.00,VWS V14.00,2013-01-13 01:04:00,
2013-01-13 01:09:00,39.7,33.1,30.11,ESE,107,5.0,13.0,77,0.00,,---,0.00,VWS V14.00,2013-01-13 01:09:00,
2013-01-13 01:14:00,39.6,32.0,30.11,East,89,11.0,13.0,74,0.00,,---,0.00,VWS V14.00,2013-01-13 01:14:00,
2013-01-13 01:19:00,39.7,32.1,30.11,East,98,7.0,11.0,74,0.00,,---,0.00,VWS V14.00,2013-01-13 01:19:00,
2013-01-13 01:25:00,39.6,32.0,30.11,SE,129,6.0,12.0,74,0.00,,---,0.00,VWS V14.00,2013-01-13 01:25:00,
2013-01-13 01:30:00,39.6,31.7,30.11,East,96,7.0,9.0,73,0.00,,---,0.00,VWS V14.00,2013-01-13 01:30:00,
2013-01-13 01:36:00,39.7,32.1,30.12,East,96,7.0,10.0,74,0.00,,---,0.00,VWS V14.00,2013-01-13 01:36:00,
2013-01-13 01:41:00,39.6,32.3,30.12,ESE,102,12.0,12.0,75,0.00,,---,0.00,VWS V14.00,2013-01-13 01:41:00,
2013-01-13 01:46:00,39.4,31.5,30.13,East,97,11.0,12.0,73,0.00,,---,0.00,VWS V14.00,2013-01-13 01:46:00,
2013-01-13 01:51:00,39.5,31.6,30.13,East,89,5.0,10.0,73,0.00,,---,0.00,VWS V14.00,2013-01-13 01:51:00,
2013-01-13 01:56:00,39.5,31.6,30.13,East,93,9.0,11.0,73,0.00,,---,0.00,VWS V14.00,2013-01-13 01:56:00,
2013-01-13 02:01:00,39.5,31.6,30.13,East,93,9.0,13.0,73,0.00,,---,0.00,VWS V14.00,2013-01-13 02:01:00,
2013-01-13 02:07:00,39.5,31.6,30.12,East,90,9.0,9.0,73,0.00,,---,0.00,VWS V14.00,2013-01-13 02:07:00,
2013-01-13 02:12:00,39.6,31.7,30.13,ESE,105,5.0,11.0,73,0.00,,---,0.00,VWS V14.00,2013-01-13 02:12:00,
2013-01-13 02:17:00,39.6,32.0,30.13,East,87,7.0,9.0,74,0.00,,---,0.00,VWS V14.00,2013-01-13 02:17:00,
2013-01-13 02:23:00,39.6,31.7,30.14,East,86,10.0,11.0,73,0.00,,---,0.00,VWS V14.00,2013-01-13 02:23:00,
2013-01-13 02:28:00,39.6,31.7,30.14,East,100,11.0,11.0,73,0.00,,---,0.00,VWS V14.00,2013-01-13 02:28:00,
2013-01-13 02:33:00,39.4,31.1,30.14,ESE,102,9.0,9.0,72,0.00,,---,0.00,VWS V14.00,2013-01-13 02:33:00,
2013-01-13 02:38:00,39.4,31.5,30.14,East,85,4.0,6.0,73,0.00,,---,0.00,VWS V14.00,2013-01-13 02:38:00,
2013-01-13 02:44:00,39.3,31.7,30.14,East,97,6.0,7.0,74,0.00,,---,0.00,VWS V14.00,2013-01-13 02:44:00,
2013-01-13 02:49:00,39.2,32.0,30.14,East,90,4.0,5.0,75,0.00,,---,0.00,VWS V14.00,2013-01-13 02:49:00,
2013-01-13 02:54:00,39.1,31.9,30.14,East,97,7.0,7.0,75,0.00,,---,0.00,VWS V14.00,2013-01-13 02:54:00,
2013-01-13 02:59:00,38.9,31.3,30.14,East,92,6.0,6.0,74,0.00,,---,0.00,VWS V14.00,2013-01-13 02:59:00,
2013-01-13 03:05:00,38.9,31.3,30.14,East,81,6.0,9.0,74,0.00,,---,0.00,VWS V14.00,2013-01-13 03:05:00,
2013-01-13 03:10:00,38.8,31.6,30.14,ESE,104,9.0,9.0,75,0.00,,---,0.00,VWS V14.00,2013-01-13 03:10:00,
2013-01-13 03:15:00,38.8,31.9,30.14,ESE,108,5.0,7.0,76,0.00,,---,0.00,VWS V14.00,2013-01-13 03:15:00,
2013-01-13 03:21:00,38.8,31.9,30.14,East,94,5.0,10.0,76,0.00,,---,0.00,VWS V14.00,2013-01-13 03:21:00,
2013-01-13 03:26:00,38.9,31.7,30.14,East,90,10.0,10.0,75,0.00,,---,0.00,VWS V14.00,2013-01-13 03:26:00,
2013-01-13 03:31:00,38.9,31.0,30.15,East,101,5.0,10.0,73,0.00,,---,0.00,VWS V14.00,2013-01-13 03:31:00,
2013-01-13 03:37:00,39.1,31.5,30.14,East,98,10.0,11.0,74,0.00,,---,0.00,VWS V14.00,2013-01-13 03:37:00,
2013-01-13 03:42:00,39.1,31.9,30.14,East,96,7.0,7.0,75,0.00,,---,0.00,VWS V14.00,2013-01-13 03:42:00,
2013-01-13 03:48:00,39.1,31.9,30.14,ESE,102,6.0,9.0,75,0.00,,---,0.00,VWS V14.00,2013-01-13 03:48:00,
2013-01-13 03:54:00,39.1,31.9,30.14,ESE,102,8.0,9.0,75,0.00,,---,0.00,VWS V14.00,2013-01-13 03:54:00,
2013-01-13 03:59:00,39.2,32.0,30.14,ESE,119,9.0,9.0,75,0.00,,---,0.00,VWS V14.00,2013-01-13 03:59:00,
2013-01-13 04:04:00,39.2,32.0,30.14,ENE,77,9.0,12.0,75,0.00,,---,0.00,VWS V14.00,2013-01-13 04:04:00,
2013-01-13 04:09:00,39.3,32.0,30.14,ESE,110,4.0,7.0,75,0.00,,---,0.00,VWS V14.00,2013-01-13 04:09:00,
2013-01-13 04:14:00,39.3,32.4,30.14,ESE,111,7.0,7.0,76,0.00,,---,0.00,VWS V14.00,2013-01-13 04:14:00,
2013-01-13 04:19:00,39.3,32.4,30.15,East,91,6.0,9.0,76,0.00,,---,0.00,VWS V14.00,2013-01-13 04:19:00,
2013-01-13 04:25:00,39.3,32.4,30.15,ESE,114,6.0,7.0,76,0.00,,---,0.00,VWS V14.00,2013-01-13 04:25:00,
2013-01-13 04:30:00,39.3,32.4,30.15,ESE,113,3.0,5.0,76,0.00,,---,0.00,VWS V14.00,2013-01-13 04:30:00,
2013-01-13 04:35:00,39.4,32.5,30.15,East,97,5.0,7.0,76,0.00,,---,0.00,VWS V14.00,2013-01-13 04:35:00,
2013-01-13 04:41:00,39.5,32.6,30.15,ESE,102,5.0,5.0,76,0.00,,---,0.00,VWS V14.00,2013-01-13 04:41:00,
2013-01-13 04:47:00,39.4,32.5,30.15,ESE,119,3.0,3.0,76,0.00,,---,0.00,VWS V14.00,2013-01-13 04:47:00,
2013-01-13 04:52:00,39.3,32.4,30.15,ESE,109,5.0,5.0,76,0.00,,---,0.00,VWS V14.00,2013-01-13 04:52:00,
2013-01-13 04:57:00,39.2,32.6,30.15,ESE,106,3.0,4.0,77,0.00,,---,0.00,VWS V14.00,2013-01-13 04:57:00,
2013-01-13 05:02:00,39.2,32.6,30.15,East,100,4.0,5.0,77,0.00,,---,0.00,VWS V14.00,2013-01-13 05:02:00,
2013-01-13 05:03:00,39.2,32.6,30.15,ESE,104,3.0,5.0,77,0.00,,---,0.00,VWS V14.00,2013-01-13 05:03:00,
2013-01-13 05:07:00,39.2,32.6,30.15,East,101,3.0,4.0,77,0.00,,---,0.00,VWS V14.00,2013-01-13 05:07:00,
2013-01-13 05:12:00,39.1,32.5,30.15,ESE,116,4.0,4.0,77,0.00,,---,0.00,VWS V14.00,2013-01-13 05:12:00,
2013-01-13 05:17:00,39.1,32.5,30.15,SE,133,3.0,5.0,77,0.00,,---,0.00,VWS V14.00,2013-01-13 05:17:00,
2013-01-13 05:22:00,39.2,32.9,30.15,SE,125,4.0,6.0,78,0.00,,---,0.00,VWS V14.00,2013-01-13 05:22:00,
2013-01-13 05:27:00,39.2,32.9,30.15,SE,124,4.0,5.0,78,0.00,,---,0.00,VWS V14.00,2013-01-13 05:27:00,
2013-01-13 05:32:00,39.2,32.9,30.15,ESE,123,6.0,9.0,78,0.00,,---,0.00,VWS V14.00,2013-01-13 05:32:00,
2013-01-13 05:37:00,39.3,33.3,30.15,ESE,119,3.0,4.0,79,0.00,,---,0.00,VWS V14.00,2013-01-13 05:37:00,
2013-01-13 05:42:00,39.3,33.3,30.16,SE,135,3.0,4.0,79,0.00,,---,0.00,VWS V14.00,2013-01-13 05:42:00,
2013-01-13 05:48:00,39.4,33.4,30.16,ESE,122,3.0,5.0,79,0.00,,---,0.00,VWS V14.00,2013-01-13 05:48:00,
2013-01-13 05:53:00,39.4,33.4,30.16,SE,126,3.0,5.0,79,0.00,,---,0.00,VWS V14.00,2013-01-13 05:53:00,
2013-01-13 05:58:00,39.4,33.4,30.16,SE,135,2.0,3.0,79,0.00,,---,0.00,VWS V14.00,2013-01-13 05:58:00,
2013-01-13 06:04:00,39.4,33.4,30.16,SE,133,3.0,5.0,79,0.00,,---,0.00,VWS V14.00,2013-01-13 06:04:00,
2013-01-13 06:10:00,39.5,33.5,30.16,SSE,147,3.0,6.0,79,0.00,,---,0.00,VWS V14.00,2013-01-13 06:10:00,
2013-01-13 06:16:00,39.4,33.4,30.16,SE,139,2.0,3.0,79,0.00,,---,0.00,VWS V14.00,2013-01-13 06:16:00,
2013-01-13 06:21:00,39.3,33.3,30.16,SE,143,3.0,3.0,79,0.00,,---,0.00,VWS V14.00,2013-01-13 06:21:00,
2013-01-13 06:26:00,39.3,33.7,30.16,SE,144,2.0,4.0,80,0.00,,---,0.00,VWS V14.00,2013-01-13 06:26:00,
2013-01-13 06:31:00,39.2,33.6,30.16,SE,144,3.0,3.0,80,0.00,,---,0.00,VWS V14.00,2013-01-13 06:31:00,
2013-01-13 06:36:00,39.2,33.9,30.16,SE,146,4.0,4.0,81,0.00,,---,0.00,VWS V14.00,2013-01-13 06:36:00,
2013-01-13 06:41:00,39.1,33.8,30.16,SSE,150,3.0,6.0,81,0.00,,---,0.00,VWS V14.00,2013-01-13 06:41:00,
2013-01-13 06:47:00,39.1,33.8,30.16,SSE,150,3.0,3.0,81,0.00,,---,0.00,VWS V14.00,2013-01-13 06:47:00,
2013-01-13 06:52:00,39.2,33.9,30.16,SSE,150,2.0,3.0,81,0.00,,---,0.00,VWS V14.00,2013-01-13 06:52:00,
2013-01-13 06:57:00,39.2,33.9,30.16,South,183,2.0,4.0,81,0.00,,---,0.00,VWS V14.00,2013-01-13 06:57:00,
2013-01-13 07:02:00,38.9,33.6,30.16,SSW,206,3.0,4.0,81,0.00,,---,0.00,VWS V14.00,2013-01-13 07:02:00,
2013-01-13 07:08:00,38.4,33.1,30.16,SW,230,4.0,4.0,81,0.00,,---,0.00,VWS V14.00,2013-01-13 07:08:00,
2013-01-13 07:13:00,38.0,32.7,30.16,WSW,237,4.0,5.0,81,0.00,,---,0.00,VWS V14.00,2013-01-13 07:13:00,
2013-01-13 07:18:00,37.7,32.7,30.17,WSW,244,4.0,6.0,82,0.00,,---,0.00,VWS V14.00,2013-01-13 07:18:00,
2013-01-13 07:23:00,37.4,32.4,30.16,WSW,242,6.0,6.0,82,0.00,,---,0.00,VWS V14.00,2013-01-13 07:23:00,
2013-01-13 07:28:00,37.1,32.4,30.16,WSW,237,4.0,5.0,83,0.00,,---,0.00,VWS V14.00,2013-01-13 07:28:00,
2013-01-13 07:34:00,37.1,32.4,30.16,WSW,243,5.0,6.0,83,0.00,,---,0.00,VWS V14.00,2013-01-13 07:34:00,
2013-01-13 07:40:00,37.1,32.4,30.16,WSW,238,4.0,4.0,83,0.00,,---,0.00,VWS V14.00,2013-01-13 07:40:00,
2013-01-13 07:45:00,37.2,32.8,30.16,WSW,237,4.0,5.0,84,0.00,,---,0.00,VWS V14.00,2013-01-13 07:45:00,
2013-01-13 07:51:00,37.2,32.8,30.17,WSW,239,5.0,5.0,84,0.00,,---,0.00,VWS V14.00,2013-01-13 07:51:00,
2013-01-13 07:57:00,37.3,32.9,30.16,WSW,239,3.0,3.0,84,0.00,,---,0.00,VWS V14.00,2013-01-13 07:57:00,
2013-01-13 08:02:00,37.3,32.9,30.16,WSW,239,4.0,4.0,84,0.00,,---,0.00,VWS V14.00,2013-01-13 08:02:00,
2013-01-13 08:07:00,37.3,32.9,30.17,WSW,242,4.0,4.0,84,0.00,,---,0.00,VWS V14.00,2013-01-13 08:07:00,
2013-01-13 08:12:00,37.2,32.8,30.17,WSW,242,5.0,5.0,84,0.00,,---,0.00,VWS V14.00,2013-01-13 08:12:00,
2013-01-13 08:18:00,37.1,32.7,30.17,WSW,242,4.0,5.0,84,0.00,,---,0.00,VWS V14.00,2013-01-13 08:18:00,
2013-01-13 08:23:00,37.2,33.1,30.17,WSW,243,5.0,5.0,85,0.00,,---,0.00,VWS V14.00,2013-01-13 08:23:00,
2013-01-13 08:28:00,37.3,32.9,30.17,WSW,243,4.0,4.0,84,0.00,,---,0.00,VWS V14.00,2013-01-13 08:28:00,
2013-01-13 08:33:00,37.4,33.0,30.17,WSW,243,4.0,4.0,84,0.00,,---,0.00,VWS V14.00,2013-01-13 08:33:00,
2013-01-13 08:38:00,37.6,33.2,30.17,WSW,254,6.0,7.0,84,0.00,,---,0.00,VWS V14.00,2013-01-13 08:38:00,
2013-01-13 08:44:00,37.1,32.7,30.18,WSW,254,7.0,8.0,84,0.00,,---,0.00,VWS V14.00,2013-01-13 08:44:00,
2013-01-13 08:49:00,36.9,32.5,30.18,WSW,254,4.0,6.0,84,0.00,,---,0.00,VWS V14.00,2013-01-13 08:49:00,
2013-01-13 08:54:00,37.0,32.6,30.18,WSW,254,4.0,5.0,84,0.00,,---,0.00,VWS V14.00,2013-01-13 08:54:00,
2013-01-13 08:59:00,37.1,32.7,30.19,WSW,255,5.0,6.0,84,0.00,,---,0.00,VWS V14.00,2013-01-13 08:59:00,
2013-01-13 09:04:00,37.1,32.7,30.18,WSW,239,5.0,5.0,84,0.00,,---,0.00,VWS V14.00,2013-01-13 09:04:00,
2013-01-13 09:09:00,37.2,32.8,30.18,WSW,252,5.0,5.0,84,0.00,,---,0.00,VWS V14.00,2013-01-13 09:09:00,
2013-01-13 09:14:00,37.3,32.9,30.19,WSW,258,7.0,9.0,84,0.00,,---,0.00,VWS V14.00,2013-01-13 09:14:00,
2013-01-13 09:19:00,37.6,33.2,30.18,WSW,258,7.0,9.0,84,0.00,,---,0.00,VWS V14.00,2013-01-13 09:19:00,
2013-01-13 09:25:00,37.9,33.2,30.18,West,268,3.0,5.0,83,0.00,,---,0.00,VWS V14.00,2013-01-13 09:25:00,
2013-01-13 09:31:00,38.0,33.3,30.18,West,274,6.0,6.0,83,0.00,,---,0.00,VWS V14.00,2013-01-13 09:31:00,
2013-01-13 09:35:00,38.0,33.3,30.19,West,277,3.0,5.0,83,0.00,,---,0.00,VWS V14.00,2013-01-13 09:35:00,
2013-01-13 09:40:00,37.9,33.2,30.19,West,278,6.0,7.0,83,0.00,,---,0.00,VWS V14.00,2013-01-13 09:40:00,
2013-01-13 09:45:00,37.7,33.0,30.19,West,279,6.0,6.0,83,0.00,,---,0.00,VWS V14.00,2013-01-13 09:45:00,
2013-01-13 09:50:00,37.5,32.8,30.19,West,281,6.0,6.0,83,0.00,,---,0.00,VWS V14.00,2013-01-13 09:50:00,
2013-01-13 09:55:00,37.0,32.6,30.19,WNW,285,3.0,4.0,84,0.00,,---,0.00,VWS V14.00,2013-01-13 09:55:00,
2013-01-13 10:00:00,36.7,32.6,30.19,West,281,6.0,6.0,85,0.00,,---,0.00,VWS V14.00,2013-01-13 10:00:00,
2013-01-13 10:05:00,36.4,32.3,30.19,West,277,3.0,7.0,85,0.00,,---,0.00,VWS V14.00,2013-01-13 10:05:00,
2013-01-13 10:10:00,36.3,32.5,30.19,WNW,283,9.0,11.0,86,0.00,,---,0.00,VWS V14.00,2013-01-13 10:10:00,
2013-01-13 10:15:00,36.2,32.4,30.19,West,264,7.0,14.0,86,0.00,,---,0.00,VWS V14.00,2013-01-13 10:15:00,
2013-01-13 10:20:00,36.2,32.7,30.19,West,264,8.0,9.0,87,0.00,,---,0.00,VWS V14.00,2013-01-13 10:20:00,
2013-01-13 10:26:00,36.3,32.8,30.19,WSW,243,8.0,9.0,87,0.00,,---,0.00,VWS V14.00,2013-01-13 10:26:00,
2013-01-13 10:31:00,36.4,32.9,30.19,WSW,255,5.0,9.0,87,0.00,,---,0.00,VWS V14.00,2013-01-13 10:31:00,
2013-01-13 10:37:00,36.2,32.7,30.19,WSW,244,7.0,7.0,87,0.00,,---,0.00,VWS V14.00,2013-01-13 10:37:00,
2013-01-13 10:42:00,35.9,32.4,30.19,WSW,253,11.0,11.0,87,0.00,,---,0.00,VWS V14.00,2013-01-13 10:42:00,
2013-01-13 10:47:00,35.7,32.5,30.19,WSW,249,7.0,9.0,88,0.00,,---,0.00,VWS V14.00,2013-01-13 10:47:00,
2013-01-13 10:53:00,35.6,32.7,30.19,WSW,258,7.0,10.0,89,0.00,,---,0.00,VWS V14.00,2013-01-13 10:53:00,
2013-01-13 10:58:00,35.7,32.8,30.20,WSW,258,7.0,9.0,89,0.00,,---,0.00,VWS V14.00,2013-01-13 10:58:00,
2013-01-13 11:03:00,36.0,33.4,30.20,WSW,248,7.0,9.0,90,0.00,,---,0.00,VWS V14.00,2013-01-13 11:03:00,
2013-01-13 11:09:00,36.3,33.7,30.20,West,260,9.0,10.0,90,0.00,,---,0.00,VWS V14.00,2013-01-13 11:09:00,
2013-01-13 11:15:00,36.7,33.8,30.20,West,260,3.0,4.0,89,0.00,,---,0.00,VWS V14.00,2013-01-13 11:15:00,
2013-01-13 11:20:00,37.0,34.1,30.20,West,279,7.0,7.0,89,0.00,,---,0.00,VWS V14.00,2013-01-13 11:20:00,
2013-01-13 11:25:00,37.0,34.1,30.20,West,272,6.0,7.0,89,0.00,,---,0.00,VWS V14.00,2013-01-13 11:25:00,
2013-01-13 11:30:00,37.1,34.2,30.20,West,278,6.0,7.0,89,0.00,,---,0.00,VWS V14.00,2013-01-13 11:30:00,
2013-01-13 11:35:00,37.4,34.2,30.20,West,275,6.0,10.0,88,0.00,,---,0.00,VWS V14.00,2013-01-13 11:35:00,
2013-01-13 11:40:00,37.6,34.1,30.19,West,266,5.0,5.0,87,0.00,,---,0.00,VWS V14.00,2013-01-13 11:40:00,
2013-01-13 11:45:00,37.6,34.1,30.19,WNW,287,5.0,7.0,87,0.00,,---,0.00,VWS V14.00,2013-01-13 11:45:00,
2013-01-13 11:52:00,37.6,34.1,30.19,WNW,282,9.0,12.0,87,0.00,,---,0.00,VWS V14.00,2013-01-13 11:52:00,
2013-01-13 11:58:00,37.3,34.1,30.19,West,261,6.0,11.0,88,0.00,,---,0.00,VWS V14.00,2013-01-13 11:58:00,
2013-01-13 12:03:00,37.4,34.2,30.19,West,265,7.0,11.0,88,0.00,,---,0.00,VWS V14.00,2013-01-13 12:03:00,
2013-01-13 12:08:00,37.4,34.2,30.19,WSW,245,8.0,10.0,88,0.00,,---,0.00,VWS V14.00,2013-01-13 12:08:00,
2013-01-13 12:13:00,37.4,34.2,30.18,West,280,4.0,4.0,88,0.00,,---,0.00,VWS V14.00,2013-01-13 12:13:00,
2013-01-13 12:18:00,37.3,34.4,30.18,SW,229,5.0,6.0,89,0.00,,---,0.00,VWS V14.00,2013-01-13 12:18:00,
2013-01-13 12:24:00,37.3,34.4,30.18,WSW,237,6.0,7.0,89,0.00,,---,0.00,VWS V14.00,2013-01-13 12:24:00,
2013-01-13 12:30:00,37.2,34.5,30.18,WSW,255,4.0,5.0,90,0.01,,---,0.01,VWS V14.00,2013-01-13 12:30:00,
2013-01-13 12:35:00,37.3,34.9,30.18,SW,232,6.0,9.0,91,0.01,,---,0.01,VWS V14.00,2013-01-13 12:35:00,
2013-01-13 12:40:00,37.4,35.3,30.18,WSW,241,4.0,5.0,92,0.02,,---,0.02,VWS V14.00,2013-01-13 12:40:00,
2013-01-13 12:45:00,37.5,35.4,30.18,WSW,250,2.0,4.0,92,0.02,,---,0.02,VWS V14.00,2013-01-13 12:45:00,
2013-01-13 12:50:00,37.5,35.4,30.17,WSW,243,5.0,5.0,92,0.02,,---,0.02,VWS V14.00,2013-01-13 12:50:00,
2013-01-13 12:55:00,37.5,35.4,30.17,WSW,241,7.0,7.0,92,0.02,,---,0.02,VWS V14.00,2013-01-13 12:55:00,
2013-01-13 13:01:00,37.5,35.4,30.17,WSW,237,7.0,7.0,92,0.03,,---,0.03,VWS V14.00,2013-01-13 13:01:00,
2013-01-13 13:06:00,37.5,35.7,30.17,West,259,6.0,6.0,93,0.03,,---,0.03,VWS V14.00,2013-01-13 13:06:00,
2013-01-13 13:12:00,37.6,35.8,30.17,WSW,254,3.0,6.0,93,0.03,,---,0.03,VWS V14.00,2013-01-13 13:12:00,
2013-01-13 13:17:00,37.6,35.8,30.17,SW,234,1.0,5.0,93,0.03,,---,0.03,VWS V14.00,2013-01-13 13:17:00,
2013-01-13 13:23:00,37.7,36.1,30.16,SW,220,2.0,3.0,94,0.04,,---,0.04,VWS V14.00,2013-01-13 13:23:00,
2013-01-13 13:28:00,37.8,36.2,30.16,SW,234,5.0,5.0,94,0.03,,---,0.04,VWS V14.00,2013-01-13 13:28:00,
2013-01-13 13:33:00,37.8,36.2,30.16,SW,234,5.0,5.0,94,0.03,,---,0.04,VWS V14.00,2013-01-13 13:33:00,
2013-01-13 13:38:00,37.8,36.2,30.16,SW,231,0.0,4.0,94,0.02,,---,0.04,VWS V14.00,2013-01-13 13:38:00,
2013-01-13 13:43:00,37.8,36.2,30.16,WSW,237,6.0,10.0,94,0.02,,---,0.04,VWS V14.00,2013-01-13 13:43:00,
2013-01-13 13:49:00,37.9,36.6,30.16,WSW,249,6.0,6.0,95,0.02,,---,0.04,VWS V14.00,2013-01-13 13:49:00,
2013-01-13 13:54:00,38.0,36.7,30.16,WSW,244,4.0,6.0,95,0.02,,---,0.04,VWS V14.00,2013-01-13 13:54:00,
2013-01-13 13:59:00,38.2,36.9,30.16,WSW,256,7.0,7.0,95,0.02,,---,0.04,VWS V14.00,2013-01-13 13:59:00,
2013-01-13 14:04:00,38.2,36.9,30.16,West,260,6.0,10.0,95,0.01,,---,0.04,VWS V14.00,2013-01-13 14:04:00,
2013-01-13 14:09:00,38.2,36.9,30.16,WSW,253,7.0,7.0,95,0.01,,---,0.04,VWS V14.00,2013-01-13 14:09:00,
2013-01-13 14:15:00,38.2,36.9,30.16,WSW,258,10.0,10.0,95,0.01,,---,0.04,VWS V14.00,2013-01-13 14:15:00,
2013-01-13 14:21:00,38.2,36.9,30.16,WSW,241,7.0,11.0,95,0.01,,---,0.04,VWS V14.00,2013-01-13 14:21:00,
2013-01-13 14:26:00,38.1,36.8,30.16,West,260,6.0,7.0,95,0.00,,---,0.04,VWS V14.00,2013-01-13 14:26:00,
2013-01-13 14:31:00,38.1,36.8,30.16,WSW,240,8.0,10.0,95,0.00,,---,0.04,VWS V14.00,2013-01-13 14:31:00,
2013-01-13 14:37:00,38.1,36.8,30.16,WNW,282,5.0,9.0,95,0.00,,---,0.04,VWS V14.00,2013-01-13 14:37:00,
2013-01-13 14:42:00,38.0,36.7,30.16,WSW,252,6.0,13.0,95,0.00,,---,0.04,VWS V14.00,2013-01-13 14:42:00,
2013-01-13 14:47:00,37.9,36.6,30.16,West,275,10.0,12.0,95,0.00,,---,0.04,VWS V14.00,2013-01-13 14:47:00,
2013-01-13 14:52:00,37.8,36.5,30.16,West,277,6.0,11.0,95,0.00,,---,0.04,VWS V14.00,2013-01-13 14:52:00,
2013-01-13 14:57:00,37.8,36.8,30.16,West,272,10.0,11.0,96,0.00,,---,0.04,VWS V14.00,2013-01-13 14:57:00,
2013-01-13 15:02:00,37.7,36.7,30.16,West,279,10.0,11.0,96,0.00,,---,0.04,VWS V14.00,2013-01-13 15:02:00,
2013-01-13 15:07:00,37.6,36.6,30.16,West,281,7.0,11.0,96,0.00,,---,0.04,VWS V14.00,2013-01-13 15:07:00,
2013-01-13 15:13:00,37.5,36.5,30.16,West,273,11.0,11.0,96,0.00,,---,0.04,VWS V14.00,2013-01-13 15:13:00,
2013-01-13 15:18:00,37.5,36.5,30.16,West,281,10.0,11.0,96,0.00,,---,0.04,VWS V14.00,2013-01-13 15:18:00,
2013-01-13 15:23:00,37.4,36.4,30.16,West,275,11.0,11.0,96,0.00,,---,0.04,VWS V14.00,2013-01-13 15:23:00,
2013-01-13 15:29:00,37.3,36.3,30.16,WNW,283,11.0,11.0,96,0.00,,---,0.04,VWS V14.00,2013-01-13 15:29:00,
2013-01-13 15:35:00,37.4,36.4,30.16,WNW,282,12.0,14.0,96,0.00,,---,0.04,VWS V14.00,2013-01-13 15:35:00,
2013-01-13 15:41:00,37.3,36.5,30.16,West,271,10.0,13.0,97,0.00,,---,0.04,VWS V14.00,2013-01-13 15:41:00,
2013-01-13 15:46:00,37.3,36.5,30.15,WNW,287,12.0,12.0,97,0.00,,---,0.04,VWS V14.00,2013-01-13 15:46:00,
2013-01-13 15:52:00,37.3,36.5,30.15,WNW,286,11.0,14.0,97,0.00,,---,0.04,VWS V14.00,2013-01-13 15:52:00,
2013-01-13 15:57:00,37.2,36.4,30.16,West,278,13.0,13.0,97,0.00,,---,0.04,VWS V14.00,2013-01-13 15:57:00,
2013-01-13 16:02:00,37.3,36.5,30.16,WNW,299,9.0,17.0,97,0.00,,---,0.04,VWS V14.00,2013-01-13 16:02:00,
2013-01-13 16:07:00,37.2,36.4,30.16,West,279,10.0,10.0,97,0.00,,---,0.04,VWS V14.00,2013-01-13 16:07:00,
2013-01-13 16:12:00,37.2,36.4,30.16,West,270,15.0,15.0,97,0.00,,---,0.04,VWS V14.00,2013-01-13 16:12:00,
2013-01-13 16:17:00,37.1,36.3,30.16,West,272,11.0,16.0,97,0.00,,---,0.04,VWS V14.00,2013-01-13 16:17:00,
2013-01-13 16:22:00,37.0,36.5,30.16,West,268,13.0,15.0,98,0.00,,---,0.04,VWS V14.00,2013-01-13 16:22:00,
2013-01-13 16:27:00,36.9,36.1,30.17,West,278,12.0,14.0,97,0.00,,---,0.04,VWS V14.00,2013-01-13 16:27:00,
2013-01-13 16:32:00,36.9,36.4,30.17,West,271,10.0,17.0,98,0.00,,---,0.04,VWS V14.00,2013-01-13 16:32:00,
2013-01-13 16:38:00,36.9,36.4,30.17,West,270,13.0,16.0,98,0.00,,---,0.04,VWS V14.00,2013-01-13 16:38:00,
2013-01-13 16:43:00,36.9,36.4,30.17,West,267,11.0,15.0,98,0.00,,---,0.04,VWS V14.00,2013-01-13 16:43:00,
2013-01-13 16:49:00,37.0,36.5,30.17,WNW,290,9.0,17.0,98,0.00,,---,0.04,VWS V14.00,2013-01-13 16:49:00,
2013-01-13 16:54:00,37.0,36.5,30.17,WNW,283,12.0,14.0,98,0.00,,---,0.04,VWS V14.00,2013-01-13 16:54:00,
2013-01-13 16:59:00,37.0,36.5,30.17,West,278,12.0,13.0,98,0.00,,---,0.04,VWS V14.00,2013-01-13 16:59:00,
2013-01-13 17:05:00,37.0,36.5,30.17,WNW,288,11.0,14.0,98,0.00,,---,0.04,VWS V14.00,2013-01-13 17:05:00,
2013-01-13 17:10:00,36.9,36.4,30.17,West,264,10.0,15.0,98,0.00,,---,0.04,VWS V14.00,2013-01-13 17:10:00,
2013-01-13 17:15:00,36.9,36.4,30.17,West,266,14.0,16.0,98,0.00,,---,0.04,VWS V14.00,2013-01-13 17:15:00,
2013-01-13 17:20:00,36.9,36.4,30.17,WSW,254,7.0,12.0,98,0.00,,---,0.04,VWS V14.00,2013-01-13 17:20:00,
2013-01-13 17:25:00,36.9,36.4,30.17,WNW,285,14.0,15.0,98,0.00,,---,0.04,VWS V14.00,2013-01-13 17:25:00,
2013-01-13 17:30:00,36.9,36.4,30.17,West,263,6.0,13.0,98,0.00,,---,0.04,VWS V14.00,2013-01-13 17:30:00,
2013-01-13 17:35:00,36.9,36.4,30.17,West,268,7.0,11.0,98,0.00,,---,0.04,VWS V14.00,2013-01-13 17:35:00,
2013-01-13 17:41:00,36.9,36.4,30.17,WNW,285,13.0,13.0,98,0.00,,---,0.04,VWS V14.00,2013-01-13 17:41:00,
2013-01-13 17:47:00,36.8,36.3,30.17,West,273,12.0,14.0,98,0.00,,---,0.04,VWS V14.00,2013-01-13 17:47:00,
2013-01-13 17:52:00,36.8,36.5,30.17,West,260,9.0,12.0,99,0.00,,---,0.04,VWS V14.00,2013-01-13 17:52:00,
2013-01-13 17:57:00,36.8,36.5,30.17,West,279,14.0,14.0,99,0.00,,---,0.04,VWS V14.00,2013-01-13 17:57:00,
2013-01-13 18:03:00,36.8,36.5,30.17,West,266,6.0,13.0,99,0.00,,---,0.04,VWS V14.00,2013-01-13 18:03:00,
2013-01-13 18:12:00,36.9,36.7,30.17,WSW,256,14.0,14.0,99,0.00,,---,0.04,VWS V14.00,2013-01-13 18:12:00,
2013-01-13 18:17:00,36.9,36.7,30.17,West,270,13.0,15.0,99,0.00,,---,0.04,VWS V14.00,2013-01-13 18:17:00,
2013-01-13 18:22:00,36.9,36.7,30.17,West,275,7.0,13.0,99,0.00,,---,0.04,VWS V14.00,2013-01-13 18:22:00,
2013-01-13 18:27:00,36.9,36.7,30.17,West,272,20.0,20.0,99,0.00,,---,0.04,VWS V14.00,2013-01-13 18:27:00,
2013-01-13 18:32:00,37.0,36.8,30.16,West,270,12.0,16.0,99,0.00,,---,0.04,VWS V14.00,2013-01-13 18:32:00,
2013-01-13 18:38:00,37.0,36.8,30.16,West,279,15.0,16.0,99,0.00,,---,0.04,VWS V14.00,2013-01-13 18:38:00,
2013-01-13 18:43:00,37.0,36.8,30.16,West,279,16.0,16.0,99,0.00,,---,0.04,VWS V14.00,2013-01-13 18:43:00,
2013-01-13 18:49:00,37.1,36.8,30.17,West,272,11.0,14.0,99,0.00,,---,0.04,VWS V14.00,2013-01-13 18:49:00,
2013-01-13 18:54:00,37.1,36.8,30.16,West,281,11.0,15.0,99,0.00,,---,0.04,VWS V14.00,2013-01-13 18:54:00,
2013-01-13 19:00:00,37.2,37.0,30.16,West,262,12.0,13.0,99,0.00,,---,0.04,VWS V14.00,2013-01-13 19:00:00,
2013-01-13 19:05:00,37.3,37.0,30.16,West,275,13.0,15.0,99,0.00,,---,0.04,VWS V14.00,2013-01-13 19:05:00,
2013-01-13 19:10:00,37.3,37.0,30.16,West,272,13.0,15.0,99,0.00,,---,0.04,VWS V14.00,2013-01-13 19:10:00,
2013-01-13 19:15:00,37.3,37.0,30.16,West,281,11.0,16.0,99,0.00,,---,0.04,VWS V14.00,2013-01-13 19:15:00,
2013-01-13 19:20:00,37.2,37.0,30.17,West,274,15.0,15.0,99,0.00,,---,0.04,VWS V14.00,2013-01-13 19:20:00,
2013-01-13 19:26:00,37.3,37.0,30.17,West,279,15.0,17.0,99,0.00,,---,0.04,VWS V14.00,2013-01-13 19:26:00,
2013-01-13 19:31:00,37.3,37.0,30.17,West,277,13.0,13.0,99,0.00,,---,0.04,VWS V14.00,2013-01-13 19:31:00,
2013-01-13 19:37:00,37.3,37.0,30.17,WNW,296,13.0,18.0,99,0.00,,---,0.04,VWS V14.00,2013-01-13 19:37:00,
2013-01-13 19:42:00,37.3,37.0,30.17,West,262,12.0,15.0,99,0.00,,---,0.04,VWS V14.00,2013-01-13 19:42:00,
2013-01-13 19:47:00,37.3,37.0,30.16,WNW,289,13.0,15.0,99,0.00,,---,0.04,VWS V14.00,2013-01-13 19:47:00,
2013-01-13 19:52:00,37.3,37.0,30.16,West,273,15.0,15.0,99,0.00,,---,0.04,VWS V14.00,2013-01-13 19:52:00,
2013-01-13 19:58:00,37.3,37.0,30.16,West,277,11.0,15.0,99,0.00,,---,0.04,VWS V14.00,2013-01-13 19:58:00,
2013-01-13 20:04:00,37.3,37.0,30.16,West,270,11.0,15.0,99,0.00,,---,0.04,VWS V14.00,2013-01-13 20:04:00,
2013-01-13 20:09:00,37.3,37.0,30.16,West,274,12.0,13.0,99,0.00,,---,0.04,VWS V14.00,2013-01-13 20:09:00,
2013-01-13 20:15:00,37.3,37.3,30.16,West,270,10.0,10.0,100,0.00,,---,0.04,VWS V14.00,2013-01-13 20:15:00,
2013-01-13 20:20:00,37.4,37.4,30.16,West,264,13.0,15.0,100,0.00,,---,0.04,VWS V14.00,2013-01-13 20:20:00,
2013-01-13 20:25:00,37.5,37.5,30.16,West,278,12.0,15.0,100,0.00,,---,0.04,VWS V14.00,2013-01-13 20:25:00,
2013-01-13 20:31:00,37.5,37.5,30.16,West,260,7.0,10.0,100,0.00,,---,0.04,VWS V14.00,2013-01-13 20:31:00,
2013-01-13 20:36:00,37.6,37.6,30.16,West,279,11.0,15.0,100,0.00,,---,0.04,VWS V14.00,2013-01-13 20:36:00,
2013-01-13 20:41:00,37.6,37.6,30.16,West,278,13.0,13.0,100,0.00,,---,0.04,VWS V14.00,2013-01-13 20:41:00,
2013-01-13 20:46:00,37.5,37.5,30.15,West,262,9.0,13.0,100,0.00,,---,0.04,VWS V14.00,2013-01-13 20:46:00,
2013-01-13 20:51:00,37.5,37.5,30.15,West,269,12.0,12.0,100,0.00,,---,0.04,VWS V14.00,2013-01-13 20:51:00,
2013-01-13 20:56:00,37.5,37.5,30.15,West,272,13.0,13.0,100,0.00,,---,0.04,VWS V14.00,2013-01-13 20:56:00,
2013-01-13 21:01:00,37.5,37.5,30.15,WSW,258,9.0,16.0,100,0.00,,---,0.04,VWS V14.00,2013-01-13 21:01:00,
2013-01-13 21:06:00,37.5,37.5,30.15,West,271,11.0,12.0,100,0.00,,---,0.04,VWS V14.00,2013-01-13 21:06:00,
2013-01-13 21:11:00,37.5,37.5,30.15,West,269,10.0,11.0,100,0.00,,---,0.04,VWS V14.00,2013-01-13 21:11:00,
2013-01-13 21:16:00,37.4,37.4,30.14,WNW,287,16.0,16.0,100,0.00,,---,0.04,VWS V14.00,2013-01-13 21:16:00,
2013-01-13 21:21:00,37.2,37.2,30.15,West,272,14.0,15.0,100,0.00,,---,0.04,VWS V14.00,2013-01-13 21:21:00,
2013-01-13 21:27:00,37.2,37.2,30.15,West,273,12.0,15.0,100,0.00,,---,0.04,VWS V14.00,2013-01-13 21:27:00,
2013-01-13 21:32:00,37.2,37.2,30.15,West,274,10.0,11.0,100,0.00,,---,0.04,VWS V14.00,2013-01-13 21:32:00,
2013-01-13 21:37:00,37.1,37.1,30.15,West,266,6.0,12.0,100,0.00,,---,0.04,VWS V14.00,2013-01-13 21:37:00,
2013-01-13 21:43:00,37.0,37.0,30.15,West,273,11.0,14.0,100,0.00,,---,0.04,VWS V14.00,2013-01-13 21:43:00,
2013-01-13 21:48:00,37.0,37.0,30.15,West,270,11.0,14.0,100,0.00,,---,0.04,VWS V14.00,2013-01-13 21:48:00,
2013-01-13 21:54:00,37.0,37.0,30.15,West,271,9.0,12.0,100,0.00,,---,0.04,VWS V14.00,2013-01-13 21:54:00,
2013-01-13 21:59:00,37.0,37.0,30.15,West,278,14.0,14.0,100,0.00,,---,0.04,VWS V14.00,2013-01-13 21:59:00,
2013-01-13 22:04:00,36.9,36.9,30.15,WSW,244,11.0,14.0,100,0.00,,---,0.04,VWS V14.00,2013-01-13 22:04:00,
2013-01-13 22:09:00,36.8,36.8,30.14,West,273,12.0,12.0,100,0.00,,---,0.04,VWS V14.00,2013-01-13 22:09:00,
2013-01-13 22:14:00,36.8,36.8,30.14,West,261,14.0,17.0,100,0.00,,---,0.04,VWS V14.00,2013-01-13 22:14:00,
2013-01-13 22:20:00,36.9,36.9,30.15,West,272,14.0,14.0,100,0.00,,---,0.04,VWS V14.00,2013-01-13 22:20:00,
2013-01-13 22:25:00,37.0,37.0,30.14,WSW,243,15.0,16.0,100,0.00,,---,0.04,VWS V14.00,2013-01-13 22:25:00,
2013-01-13 22:30:00,37.1,37.1,30.14,West,261,10.0,16.0,100,0.00,,---,0.04,VWS V14.00,2013-01-13 22:30:00,
2013-01-13 22:36:00,37.1,37.1,30.13,West,270,14.0,15.0,100,0.00,,---,0.04,VWS V14.00,2013-01-13 22:36:00,
2013-01-13 22:41:00,37.1,37.1,30.13,WSW,246,10.0,14.0,100,0.00,,---,0.04,VWS V14.00,2013-01-13 22:41:00,
2013-01-13 22:46:00,37.1,37.1,30.13,West,263,17.0,19.0,100,0.00,,---,0.04,VWS V14.00,2013-01-13 22:46:00,
2013-01-13 22:52:00,37.2,37.2,30.13,WSW,241,13.0,15.0,100,0.00,,---,0.04,VWS V14.00,2013-01-13 22:52:00,
2013-01-13 22:58:00,37.2,37.2,30.13,West,274,11.0,14.0,100,0.00,,---,0.04,VWS V14.00,2013-01-13 22:58:00,
2013-01-13 23:03:00,37.2,37.2,30.13,West,263,12.0,13.0,100,0.00,,---,0.04,VWS V14.00,2013-01-13 23:03:00,
2013-01-13 23:08:00,37.2,37.2,30.13,West,260,11.0,14.0,100,0.00,,---,0.04,VWS V14.00,2013-01-13 23:08:00,
2013-01-13 23:13:00,37.2,37.2,30.13,West,268,14.0,16.0,100,0.00,,---,0.04,VWS V14.00,2013-01-13 23:13:00,
2013-01-13 23:18:00,37.2,37.2,30.13,West,270,13.0,15.0,100,0.00,,---,0.04,VWS V14.00,2013-01-13 23:18:00,
2013-01-13 23:24:00,37.2,37.2,30.13,WSW,244,13.0,15.0,100,0.00,,---,0.04,VWS V14.00,2013-01-13 23:24:00,
2013-01-13 23:29:00,37.1,37.1,30.13,West,272,11.0,13.0,100,0.00,,---,0.04,VWS V14.00,2013-01-13 23:29:00,
2013-01-13 23:35:00,37.2,37.2,30.13,West,274,14.0,14.0,100,0.00,,---,0.04,VWS V14.00,2013-01-13 23:35:00,
2013-01-13 23:40:00,37.2,37.2,30.13,West,275,7.0,10.0,100,0.00,,---,0.04,VWS V14.00,2013-01-13 23:40:00,
2013-01-13 23:46:00,37.2,37.2,30.13,WSW,256,12.0,12.0,100,0.00,,---,0.04,VWS V14.00,2013-01-13 23:46:00,
2013-01-13 23:51:00,37.3,37.3,30.13,West,275,13.0,13.0,100,0.00,,---,0.04,VWS V14.00,2013-01-13 23:51:00,
2013-01-13 23:57:00,37.4,37.4,30.13,West,271,7.0,13.0,100,0.00,,---,0.04,VWS V14.00,2013-01-13 23:57:00,